Reflectivity
-20 -20 -20 -20 -20 -20 -20 -20 -20 -20 -20 -20 -20 -19 23 20 29 34 25 29 29 25
-20 -20 -20 -20 -20 -20 -20 -20 -20 -20 -20 -20 -20 -20 -20 20 -0 28 38 34 20 38
-20 -20 -20 -20 -20 -20 -20 -20 -20 -20 -20 -20 -20 -20 -20 -20 3 -8 12 14 36 19
-20 -20 -20 -20 -20 -20 -20 -20 -20 -20 -20 -20 -20 -20 -20 -20 -16 -20 -20 14 8 15
-20 -20 -20 -20 -20 -20 -20 -20 -20 -20 -20 -20 -20 -20 -20 -20 -20 -20 -20 -20 10 21
-20 -20 -20 -20 -20 -20 -20 -20 -20 -20 -20 -20 -20 -20 -20 5 -20 -11 4 -20 -11 -17
-20 -20 -20 -20 -20 -20 -20 -20 -20 -20 -20 -20 -20 -20 -20 -5 -19 2 -20 -20 -20 -6
-20 -20 -20 -20 -20 -20 -20 -20 -20 -20 -20 -20 -20 -20 -20 -7 -20 -20 -20 -14 -17 2
-20 -20 -20 -20 -20 -20 -20 -20 -20 -20 -20 -20 -20 -20 4 11 -11 -20 -20 -2 -7 -20
-20 -20 -20 -20 -20 -20 -20 -20 -20 -20 -20 -20 -20 1 11 12 -10 -20 -20 -20 -15 -14
-20 -20 -20 -20 -20 -20 -20 -20 -20 -20 -20 -20 -20 -5 11 9 -18 -12 -5 5 -17 -16
-20 -20 -20 -20 -20 -20 -20 -20 -20 -20 -20 -20 1 9 -5 -14 -20 3 -9 1 1 5
-20 -20 -20 -20 -20 -20 -20 -20 -20 -18 -13 1 -20 11 10 4 -10 -11 -12 -17 -19 12
-20 -20 -20 -20 -20 -20 -20 -20 -10 -20 -20 -1 -15 -10 -18 -14 2 -4 -5 -12 -15 -13
Wind_Speed
6 3 3 5 6 7 8 10 14 14 14 15 16 13 9 7 9 12 14 17 18 13
4 4 4 6 4 4 6 9 12 13 14 14 14 14 13 8 8 6 8 13 13 13
5 5 4 5 6 6 6 7 10 11 12 14 14 15 16 13 9 9 7 8 15 13
4 5 5 5 6 6 6 6 8 9 10 11 14 14 14 14 14 15 13 10 12 13
6 6 6 6 7 7 7 7 8 9 10 11 11 11 15 16 12 14 17 16 13 14
6 7 7 7 7 8 8 10 9 12 13 13 11 11 12 12 13 14 15 17 17 16
7 7 7 7 9 10 11 12 14 13 13 14 15 15 11 12 14 14 16 17 18 17
6 7 7 8 10 13 12 13 13 15 15 15 14 11 18 16 16 17 16 15 17 15
7 8 7 8 11 11 13 14 15 15 15 15 12 18 18 18 17 17 15 15 15 16
6 7 8 11 11 13 15 14 15 14 14 16 16 20 22 23 15 16 15 16 14 15
6 9 11 10 13 13 13 14 13 14 16 16 14 20 22 24 18 16 17 18 18 15
7 10 10 12 13 12 12 12 13 14 15 16 16 20 23 22 17 16 17 15 15 14
6 8 10 11 11 11 11 12 12 15 15 18 16 21 23 22 13 16 14 15 14 15
6 8 8 10 9 11 12 11 13 15 15 15 16 17 23 24 16 14 14 13 12 9
Wind_Direction
27 27 359 341 343 346 344 338 339 337 339 343 338 342 324 330 330 337 329 342 318 260
20 15 345 327 320 318 324 332 338 333 335 335 332 328 328 323 320 336 346 339 332 320
3 357 327 320 318 311 300 315 325 331 332 332 331 328 330 329 318 335 331 347 329 338
1 353 338 330 317 306 303 295 309 313 320 327 330 328 326 325 323 334 337 335 325 323
2 348 342 327 318 313 310 304 301 309 312 320 322 319 324 322 333 334 324 320 323 311
359 351 341 329 322 321 320 327 328 330 324 315 316 319 318 315 328 322 320 319 309 310
355 349 339 331 331 334 336 336 334 332 331 333 326 318 309 318 315 318 313 314 312 312
358 350 337 335 335 337 339 335 338 337 332 330 330 328 336 325 322 316 313 309 300 296
354 340 332 335 339 337 342 341 338 336 333 329 326 324 317 317 316 312 307 303 311 308
334 336 342 342 350 351 340 338 332 330 329 330 326 326 323 319 316 309 306 307 308 309
348 352 346 4 353 347 341 331 327 327 329 326 323 322 323 327 320 315 310 314 310 305
359 355 10 360 350 339 332 330 327 325 325 323 329 337 334 329 326 316 312 308 311 312
359 10 8 354 338 331 328 328 330 333 337 329 334 333 330 327 321 318 318 311 302 292
22 16 3 339 334 333 333 335 345 342 338 336 337 336 333 331 328 320 315 307 300 290